Location: Ostrava
(49.8330°N, 18.2830°E)
Time: 09:30:33
(UTC+02:00)

Vanguard 2 Rocket - Visible Passes

Search period start: 24 April 2017 00:00
Search period end: 04 May 2017 00:00
Orbit: 554 x 3328 km, 32.9° (Epoch: 22 April)

Date Brightness Start Highest point End Pass type
(mag) Time Alt. Az. Time Alt. Az. Time Alt. Az.
24 Apr 8.6 21:29:04 10° SW 21:32:23 14° SSW 21:34:57 10° S visible
25 Apr 8.7 20:27:37 10° WSW 20:33:32 19° SSW 20:37:49 10° SSE visible
26 Apr 8.9 21:44:20 10° SW 21:46:11 11° SSW 21:47:51 10° SSW visible
27 Apr 8.9 20:41:50 10° WSW 20:47:26 18° SSW 20:51:35 10° SSE visible
29 Apr 9.1 20:56:32 10° WSW 21:01:09 15° SW 21:04:48 10° S visible
01 May 9.5 21:12:28 10° WSW 21:14:41 11° SW 21:16:40 10° SSW visible
